Cloud_Cover
88 74 100 100 100 100 100 100 100 100 100 100 100 100 100 100 100 100 100 100 100 0 0 0 0 0 0 0 5 98 100 36 100 99 90 70 22 5 30 0 0 6 2
100 99 100 100 100 100 100 100 100 100 100 100 100 100 100 80 86 100 100 56 0 0 0 0 2 0 0 0 0 4 84 78 100 99 100 100 44 14 5 0 0 0 0
81 99 100 91 100 100 86 100 100 100 100 100 100 100 50 90 100 100 43 0 0 0 0 0 2 0 0 0 2 5 5 88 100 100 100 99 79 7 43 0 4 1 0
76 82 78 100 82 100 100 100 98 58 79 88 82 55 100 100 67 0 0 0 0 0 0 2 0 0 0 0 0 5 26 60 100 100 100 99 96 18 72 66 0 10 6
38 54 82 5 17 40 96 100 94 30 35 70 100 100 94 7 0 1 3 0 0 1 0 2 0 0 0 0 0 3 27 7 93 100 100 99 100 58 48 5 0 5 0
100 92 65 8 41 53 100 87 34 100 100 100 100 8 0 3 5 0 0 2 0 0 0 5 0 0 0 0 0 1 10 55 43 60 100 98 52 35 11 95 1 0 4
16 73 40 50 99 100 100 99 94 90 31 1 4 5 5 5 4 5 5 5 3 0 5 31 3 0 0 0 4 3 28 99 84 100 100 94 50 63 20 100 44 0 0
2 36 27 0 8 54 10 68 100 34 0 0 0 2 3 4 4 5 5 5 4 3 5 46 72 36 6 5 33 4 5 94 68 7 100 96 94 26 9 100 83 5 2
17 23 47 39 7 75 72 1 0 0 0 0 0 1 5 5 5 5 8 5 30 52 100 98 24 32 60 19 26 4 54 19 91 100 55 48 99 84 76 100 62 50 4
30 33 36 28 39 25 4 0 0 0 0 0 0 0 5 0 0 0 69 36 15 44 75 97 22 32 100 5 66 100 46 46 5 5 41 100 88 100 51 73 100 72 50
37 36 29 17 20 10 1 0 0 0 0 0 0 0 0 0 0 0 5 4 5 8 40 100 8 53 57 77 24 68 53 47 16 5 5 23 15 100 99 87 68 83 44
26 20 23 22 11 17 0 0 0 0 0 0 0 0 0 0 0 0 0 0 1 8 40 18 22 41 14 85 100 100 93 48 18 26 39 4 5 95 100 100 100 100 68
3 11 23 31 6 6 26 1 2 0 0 0 0 0 0 0 0 0 0 0 0 0 0 0 0 2 22 100 100 100 100 100 82 8 47 6 16 21 100 100 100 100 100
1 6 5 6 21 34 6 0 0 0 0 0 0 0 0 0 0 0 0 0 0 0 0 0 0 0 0 2 65 99 100 100 100 98 5 49 100 43 12 100 100 100 100
0 6 15 8 8 18 0 0 0 0 0 0 0 0 0 0 0 0 0 0 0 0 0 0 0 0 0 0 0 0 64 100 100 100 92 5 26 12 38 98 100 100 100
0 0 19 30 30 34 11 11 0 0 0 0 0 0 0 0 0 3 1 0 0 0 0 0 0 0 0 0 0 0 0 19 100 100 100 92 38 99 76 73 100 100 100
1 0 0 0 14 30 19 4 0 0 0 0 0 0 0 0 3 0 0 0 0 0 0 0 1 0 0 0 0 0 0 0 0 100 100 100 97 12 64 97 100 100 100
9 0 0 0 0 1 1 0 0 0 0 0 0 0 3 4 2 0 2 0 0 0 0 0 0 0 0 0 0 0 0 0 0 0 92 100 100 93 54 98 90 100 100
0 0 0 0 0 7 10 0 5 0 0 0 0 0 0 0 0 0 0 5 0 0 2 0 1 0 0 0 0 0 0 0 0 0 0 4 78 100 60 82 6 64 100
0 0 0 0 2 3 4 0 0 0 0 0 0 0 0 4 0 0 0 0 2 1 0 2 27 22 3 0 0 0 0 0 0 0 0 0 0 4 83 28 83 9 59
0 0 0 0 0 0 0 0 0 0 0 0 0 0 0 0 0 0 0 0 0 0 0 20 16 11 1 5 0 0 0 0 0 0 0 0 0 0 0 6 18 100 56
0 0 0 0 0 0 0 0 0 0 0 0 0 0 0 0 0 0 0 0 0 0 2 5 2 0 0 13 7 0 0 0 2 0 0 0 0 0 0 0 0 21 100
0 0 0 0 0 0 0 22 11 0 0 0 0 3 0 0 0 0 0 0 0 0 0 5 3 2 2 19 25 0 0 0 0 0 0 1 0 0 0 0 0 0 11
0 0 0 0 0 0 21 3 0 0 0 2 17 12 14 0 0 0 0 0 0 0 0 5 5 3 10 5 6 15 10 3 0 0 0 0 0 0 0 0 0 0 0
0 0 0 0 0 0 3 3 0 0 3 26 22 0 10 21 0 0 0 0 0 0 5 5 5 5 5 6 5 4 0 0 2 0 0 0 0 0 0 0 0 0 0
1 0 0 0 0 0 0 1 0 0 0 17 1 0 0 0 0 0 0 0 0 2 0 3 5 52 43 13 5 5 2 5 0 0 0 0 0 0 0 0 0 0 0